FW0344 Weather Reports


time (UTC)temp
F
wind
direction
speed
knots
gust
knots
rain 1hr
in
rain 24hr
in
rain mn
in
humidity
%
barometer
mb
20260506010905 53 6 2.6 7.8 0.00 0.00 0.00 75 1011.4
20260506010026 53 1 2.6 8.7 0.00 0.00 0.00 75 1011.4
20260506005406 53 10 2.6 7.0 0.00 0.00 0.00 75 1011.4
20260506004505 53 353 1.7 5.2 0.00 0.00 0.00 74 1011.4
20260506003605 53 359 2.6 7.0 0.00 0.00 0.00 74 1011.4
20260506002705 53 13 2.6 6.1 0.00 0.00 0.00 74 1011.5
20260506001829 53 9 1.7 4.3 0.00 0.00 0.00 74 1011.5
20260506000906 53 354 1.7 5.2 0.00 0.00 0.00 74 1011.6
20260506000005 53 354 2.6 6.1 0.00 0.00 0.00 74 1011.4
20260505235407 53 342 2.6 7.0 0.00 0.00 0.00 74 1011.4
20260505234505 53 347 2.6 7.8 0.00 0.00 0.00 74 1011.4
20260505233606 53 345 2.6 7.8 0.00 0.00 0.00 74 1011.5
20260505232705 53 337 3.5 9.6 0.00 0.00 0.00 74 1011.5
20260505231805 53 344 3.5 7.8 0.00 0.00 0.00 74 1011.5
20260505230906 53 340 3.5 10.4 0.00 0.00 0.00 73 1011.6
20260505230005 53 346 3.5 7.8 0.00 0.00 0.00 73 1011.7
20260505225405 53 342 3.5 9.6 0.00 0.00 0.00 73 1011.6
20260505224505 53 347 3.5 7.8 0.00 0.00 0.00 73 1011.6
20260505223606 53 343 3.5 7.8 0.00 0.00 0.00 73 1011.6
20260505222727 53 350 3.5 9.6 0.00 0.00 0.00 73 1011.6
20260505221806 54 355 3.5 7.8 0.00 0.00 0.00 73 1011.7
20260505220906 54 349 4.3 10.4 0.00 0.00 0.00 72 1011.7
20260505220006 54 350 3.5 8.7 0.00 0.00 0.00 72 1011.7
20260505215426 54 350 3.5 8.7 0.00 0.00 0.00 72 1011.6
20260505214526 54 346 2.6 7.8 0.00 0.00 0.00 72 1011.7
20260505213605 54 354 2.6 8.7 0.00 0.00 0.00 72 1011.7
20260505212706 54 352 2.6 7.0 0.00 0.00 0.00 71 1011.7
20260505211806 54 352 2.6 5.2 0.00 0.00 0.00 71 1011.6
20260505210906 55 347 2.6 7.0 0.00 0.00 0.00 70 1011.6
20260505210006 55 340 3.5 7.0 0.00 0.00 0.00 70 1011.6
20260505205426 55 342 3.5 7.0 0.00 0.00 0.00 69 1011.6
20260505204505 56 340 3.5 8.7 0.00 0.00 0.00 68 1011.6
20260505203605 56 340 2.6 8.7 0.00 0.00 0.00 68 1011.6
20260505202706 57 332 3.5 8.7 0.00 0.00 0.00 67 1011.6
20260505201806 57 325 2.6 7.8 0.00 0.00 0.00 66 1011.5
20260505200906 58 328 2.6 7.0 0.00 0.00 0.00 65 1011.4
20260505200005 58 1 2.6 7.0 0.00 0.00 0.00 64 1011.3
20260505195406 58 360 1.7 6.1 0.00 0.00 0.00 64 1011.2
20260505194506 58 358 2.6 7.8 0.00 0.00 0.00 64 1011.2
20260505193605 58 19 2.6 8.7 0.00 0.00 0.00 64 1011.1
20260505192706 58 19 2.6 7.0 0.00 0.00 0.00 64 1011.0
20260505191826 59 15 3.5 7.0 0.00 0.00 0.00 64 1011.0
20260505190904 59 30 2.6 7.8 0.00 0.00 0.00 64 1011.0
20260505190006 59 18 1.7 7.8 0.00 0.00 0.00 64 1010.9
20260505185404 59 20 1.7 3.5 0.00 0.00 0.00 64 1010.9
20260505184505 59 28 1.7 6.1 0.00 0.00 0.00 63 1010.8
20260505183605 60 38 1.7 4.3 0.00 0.00 0.00 63 1010.8
20260505182704 60 36 2.6 7.8 0.00 0.00 0.00 63 1010.7
20260505181804 60 45 2.6 7.0 0.00 0.00 0.00 62 1010.6
20260505180905 60 36 2.6 7.0 0.00 0.00 0.00 62 1010.7
20260505180004 61 34 2.6 7.0 0.00 0.00 0.00 62 1010.7
20260505175425 61 31 3.5 7.0 0.00 0.00 0.00 62 1010.6
20260505174525 61 40 3.5 7.0 0.00 0.00 0.00 61 1010.6
20260505173604 61 33 3.5 8.7 0.00 0.00 0.00 60 1010.6
20260505172706 61 40 2.6 8.7 0.00 0.00 0.00 60 1010.7
20260505171805 62 39 3.5 7.8 0.00 0.00 0.00 60 1010.8
20260505170905 62 36 2.6 7.0 0.00 0.00 0.00 59 1010.8
20260505170006 62 14 3.5 7.8 0.00 0.00 0.00 59 1010.9
20260505165404 62 28 3.5 8.7 0.00 0.00 0.00 59 1010.9
20260505164505 62 40 3.5 8.7 0.00 0.00 0.00 59 1010.9
20260505163606 62 36 5.2 10.4 0.00 0.00 0.00 59 1010.9
20260505162704 62 37 5.2 10.4 0.00 0.00 0.00 59 1010.8
20260505161805 62 31 4.3 9.6 0.00 0.00 0.00 60 1010.9
20260505160904 62 16 4.3 9.6 0.00 0.00 0.00 60 1010.9
20260505152705 62 20 4.3 9.6 0.00 0.00 0.00 61 1011.0
20260505151805 62 15 4.3 9.6 0.00 0.00 0.00 61 1011.0
20260505150905 62 29 5.2 9.6 0.00 0.00 0.00 60 1011.0
20260505124505 64 347 6.1 13.0 0.00 0.00 0.00 56 1011.3
20260505123605 64 347 5.2 11.3 0.00 0.00 0.00 58 1011.2
20260505122705 63 17 5.2 12.2 0.00 0.00 0.00 58 1011.4
20260505121805 64 29 6.1 13.0 0.00 0.00 0.00 56 1011.4
20260505120904 65 36 6.1 11.3 0.00 0.00 0.00 58 1011.4
20260505120005 66 35 5.2 13.0 0.00 0.00 0.00 59 1011.4
20260505115405 64 9 5.2 13.0 0.00 0.00 0.00 62 1011.3
20260505114525 64 25 4.3 10.4 0.00 0.00 0.00 61 1011.4
20260505113604 64 42 4.3 9.6 0.00 0.00 0.00 62 1011.4
20260505112703 63 359 4.3 11.3 0.00 0.00 0.00 64 1011.6
20260505111805 62 12 5.2 13.0 0.00 0.00 0.00 64 1011.6
20260505110904 64 35 6.1 11.3 0.00 0.00 0.00 63 1011.7
20260505101805 60 5 6.1 12.2 0.00 0.00 0.00 67 1012.0
20260505100904 62 11 5.2 11.3 0.00 0.00 0.00 66 1012.0
20260505100025 62 21 4.3 9.6 0.00 0.00 0.00 68 1012.1
20260505095403 61 22 5.2 11.3 0.00 0.00 0.00 68 1011.9
20260505094503 61 24 5.2 13.0 0.00 0.00 0.00 70 1012.0
20260505093624 60 24 5.2 10.4 0.00 0.00 0.00 72 1012.2
20260505092704 59 23 6.1 12.2 0.00 0.00 0.00 72 1012.1
20260505091803 59 43 7.0 14.8 0.00 0.00 0.00 71 1012.4
20260505090905 60 42 6.1 11.3 0.00 0.00 0.00 72 1012.4
20260505090024 59 42 6.1 16.5 0.00 0.00 0.00 73 1012.4
20260505085403 59 36 5.2 10.4 0.00 0.00 0.00 76 1012.4
20260505084525 57 23 6.1 13.9 0.00 0.00 0.00 75 1012.5
20260505083604 59 41 7.0 12.2 0.00 0.00 0.00 74 1012.5
20260505082704 58 36 6.1 11.3 0.00 0.00 0.00 76 1012.5
20260505081804 56 7 6.1 14.8 0.00 0.00 0.00 77 1012.5
20260505080904 57 24 6.1 12.2 0.00 0.00 0.00 76 1012.4
20260505080025 58 40 5.2 11.3 0.00 0.00 0.00 77 1012.5
20260505075403 57 28 5.2 13.0 0.00 0.00 0.00 78 1012.5
20260505074504 57 27 6.1 10.4 0.00 0.00 0.00 79 1012.6
20260505073603 56 24 4.3 13.0 0.00 0.00 0.00 80 1012.5
20260505072704 56 20 4.3 10.4 0.00 0.00 0.00 83 1012.4
20260505071803 55 27 4.3 10.4 0.00 0.00 0.00 85 1012.4
20260505070924 54 33 3.5 9.6 0.00 0.00 0.00 86 1012.3
20260505070005 54 20 3.5 7.8 0.00 0.00 0.00 87 1012.4
20260505065404 53 23 3.5 7.8 0.00 0.00 0.00 87 1012.4
20260505064504 53 24 3.5 9.6 0.00 0.00 0.00 88 1012.5
20260505063603 53 27 3.5 8.7 0.00 0.00 0.00 88 1012.5
20260505062704 52 36 2.6 7.8 0.00 0.00 0.00 88 1012.5
20260505061804 52 34 3.5 7.0 0.00 0.00 0.00 88 1012.5
20260505060903 52 36 2.6 7.8 0.00 0.00 0.00 88 1012.4
20260505060003 52 37 4.3 8.7 0.00 0.00 0.00 88 1012.4
20260505055404 52 33 3.5 8.7 0.00 0.00 0.00 88 1012.4
20260505054504 52 29 2.6 4.3 0.00 0.00 0.00 88 1012.4
20260505053604 52 33 3.5 7.0 0.00 0.00 0.00 88 1012.4
20260505052704 52 34 3.5 7.8 0.00 0.00 0.00 88 1012.3
20260505051807 52 31 2.6 6.1 0.00 0.00 0.00 88 1012.2
20260505050907 52 15 2.6 7.0 0.00 0.00 0.00 88 1012.1
20260505040907 54 34 1.7 3.5 0.00 0.00 0.00 88 1012.0
20260505040007 54 40 1.7 3.5 0.00 0.00 0.00 87 1012.2
20260505035406 54 38 1.7 4.3 0.00 0.00 0.00 87 1012.1
20260505034506 54 28 1.7 3.5 0.00 0.00 0.00 87 1012.3
20260505033606 55 38 0.9 2.6 0.00 0.00 0.00 87 1012.4
20260505032707 55 54 1.7 3.5 0.00 0.00 0.00 87 1012.4
20260505031805 55 41 2.6 4.3 0.00 0.00 0.00 87 1012.5
20260505030906 55 31 2.6 4.3 0.00 0.00 0.00 86 1012.5
20260505030028 55 44 2.6 6.1 0.00 0.00 0.00 86 1012.5
20260505025406 55 43 2.6 5.2 0.00 0.00 0.00 86 1012.5
20260505024528 55 46 2.6 7.0 0.00 0.00 0.00 86 1012.6
20260505023607 55 37 2.6 6.1 0.00 0.00 0.00 86 1012.6
20260505022706 55 36 3.5 7.8 0.00 0.00 0.00 86 1012.5
20260505021806 55 20 2.6 5.2 0.00 0.00 0.00 86 1012.6
20260505020905 55 27 2.6 6.1 0.00 0.00 0.00 86 1012.5
20260505020006 55 41 2.6 5.2 0.00 0.00 0.00 86 1012.6
20260505015405 55 41 2.6 5.2 0.00 0.00 0.00 86 1012.7
20260505014506 55 36 1.7 4.3 0.00 0.00 0.00 86 1012.6
20260505013605 55 37 1.7 3.5 0.00 0.00 0.00 86 1012.6
20260505012726 55 56 2.6 5.2 0.00 0.00 0.00 86 1012.8
20260505011806 55 62 2.6 5.2 0.00 0.00 0.00 86 1013.0